Location: Le Rocchette
(44.3500°N, 7.8333°E)
Time: 02:12:48
(UTC+00:00)

COSMOS 2487 - Pass Details

Date: 17 November 2019
Orbit: 443 x 448 km, 74.7° (Epoch: 14 December)

Event Time Altitude Azimuth Distance (km) Brightness Sun altitude
Rises 04:40:56 0° 183° (S) 2,423 6.2 -18.8°
Reaches altitude 10° 04:43:04 10° 176° (S) 1,558 5.3 -18.4°
Maximum altitude 04:46:19 42° 105° (ESE) 648 3.7 -17.9°
Drops below altitude 10° 04:49:35 10° 33° (NNE) 1,572 5.4 -17.3°
Sets 04:51:44 0° 27° (NNE) 2,449 6.4 -16.9°
